Regional Weather Roundup
Issued by NWS

Home | Current Version | Previous Version | Text Only | Print | Product List | Glossary Off
Versions: 1 2 3 4 5 6 7 8 9 10 11 12 13 14 15 16 17 18 19 20 21 22 23 24 25 26 27 28 29 30 31 32 33 34 35 36 37 38 39 40 41 42 43 44 45 46 47 48 49 50

000
ASUS43 KLMK 301610
RWRKY
KENTUCKY REGIONAL WEATHER ROUNDUP
NATIONAL WEATHER SERVICE LOUISVILLE KY
1200 PM EDT SUN APR 30 2017

NOTE "FAIR" INDICATES FEW OR NO CLOUDS BELOW 12,000 FEET
WITH NO SIGNIFICANT WEATHER AND/OR OBSTRUCTIONS TO VISIBILITY.

KYZ001>023-026-027-061>063-070>075-301700-
WESTERN AND SOUTH CENTRAL KENTUCKY

CITY           SKY/WX    TMP DP  RH WIND       PRES   REMARKS
PADUCAH        TSTM      65  63  93 E6        29.81F FOG
HENDERSON        N/A    N/A N/A N/A MISG        N/A
OWENSBORO      CLOUDY    71  65  81 SE15      29.85F
HOPKINSVILLE   CLOUDY    76  66  70 S14G25    29.87S
BOWLING GREEN  CLOUDY    78  67  68 S21G29    29.92F
GLASGOW        CLOUDY    77  64  64 S10G17    29.96S
$$

KYZ024-025-028>034-038-045-046-053-301700-
NORTH CENTRAL KENTUCKY

CITY           SKY/WX    TMP DP  RH WIND       PRES   REMARKS
LOUISVILLE/SDF CLOUDY    76  68  76 S10       29.92F
LOUISVILLE/LOU CLOUDY    76  69  79 S9        29.93F
FORT KNOX      CLOUDY    74  66  75 S13G26    29.91F
$$

KYZ035>037-039>044-047>052-055>060-089>105-301700-
NORTHEAST KENTUCKY

CITY           SKY/WX    TMP DP  RH WIND       PRES   REMARKS
LEXINGTON      PTSUNNY   74  68  81 SW12      29.99S
COVINGTON      CLOUDY    76  65  68 S14G28    29.93R
FRANKFORT      PTSUNNY   80  63  55 S16G28    29.95F
$$

KYZ054-064>069-076>088-106>120-301700-
SOUTHEAST KENTUCKY

CITY           SKY/WX    TMP DP  RH WIND       PRES   REMARKS
JACKSON        CLOUDY    81  63  54 VRB5      30.06S
LONDON         MOSUNNY   81  62  52 S18G25    30.03F
SOMERSET       CLOUDY    79  61  53 S16G25    30.04R
MIDDLESBORO    CLOUDY    81  65  59 S7        30.08S
MONTICELLO     PTSUNNY   81  67  62 S18G35    30.03R
$$





USA.gov is the U.S. government's official web portal to all federal, state and local government web resources and services.